sat.trackr.live / text

‹ back to catalog

STARLINK-34190

NORAD 64078 · 2025-107Q

PAYLOAD ACTIVE UNKNOWN

§ Identity

Operator
Country
US
Launch date
2025-05-21
Launch site
AFETR
Launch vehicle
Mass (kg)
RCS (m²)

Purposes: comms

External: N2YO · Heavens-Above · Gunter

§ Orbital elements

Epoch: 2026-09-20T03:58:20.793216Z

Period
94.27 min
Inclination
43.0027°
Eccentricity
0.0000697
Mean motion
15.27590011 rev/d
Perigee alt
482.5 km
Apogee alt
483.5 km
Semi-major
6,861.2 km
B*
4.3347e-4
RAAN
183.1992°
Arg perigee
351.1717°
Mean anomaly
8.9122°
Rev number
7,586

§ Raw data

STARLINK-341901 64078U 25107Q   26263.16551844  .00011689  00000+0  43347-3 0  99912 64078  43.0027 183.1992 0000697 351.1717   8.9122 15.27590011 75862

JSON: /api/v1/satellites/64078 · /tle

For live sub-satellite position, see the globe view (requires WebGL).

§ Visibility from observer

Set your observer location to see the next 7 days of passes ≥ 10°. The values pass through the URL so the page stays shareable.

No JS? Fill the form by hand. The geolocation button needs JavaScript.